Regional Weather Roundup
Issued by NWS Northern Indiana

Home | Current Version | Previous Version | Graphics & Text | Print | Product List | Glossary On
Versions: 1 2 3 4 5 6 7 8 9 10 11 12 13 14 15 16 17 18 19 20 21 22 23 24 25 26 27 28 29 30 31 32 33 34 35 36 37 38 39 40 41 42 43 44 45 46 47 48 49 50
000
ASUS43 KIWX 160600
RWRIWX

KIWX WEATHER ROUNDUP
NATIONAL WEATHER SERVICE NORTHERN INDIANA
200 AM EDT WED APR 16 2014

NOTE: "FAIR" INDICATES FEW OR NO CLOUDS BELOW 12,000 FEET WITH NO
SIGNIFICANT WEATHER AND/OR OBSTRUCTIONS TO VISIBILITY.

* THESE STATIONS ARE NOT UNDER NWS QUALITY CONTROL. THEY ALSO MAY NOT
  REPORT WEATHER SUCH AS PRECIPITATION OR FOG.

INZ001>027-160700-
NORTHERN INDIANA

CITY           SKY/WX    TMP DP  RH WIND       PRES   REMARKS
VALPARAISO     FAIR      23  18  81 E3        30.24R
6HR MIN TEMP:  23; 6HR MAX TEMP:  33;

SOUTH BEND     FAIR      28  13  53 SE5       30.25R WCI  23
6HR MIN TEMP:  27; 6HR MAX TEMP:  32;

GOSHEN         FAIR      25  16  68 SE5       30.24S WCI  19
6HR MIN TEMP:  24; 6HR MAX TEMP:  32;

ANGOLA*        CLEAR     23  16  74 CALM      30.24S
FORT WAYNE     FAIR      24  16  71 CALM      30.26S
6HR MIN TEMP:  24; 6HR MAX TEMP:  32;

PERU/GRISSOM   FAIR      26  20  77 SE6       30.25R WCI  20
6HR MIN TEMP:  26; 6HR MAX TEMP:  35;


$$
INZ028>050-160700-
CENTRAL INDIANA

CITY           SKY/WX    TMP DP  RH WIND       PRES   REMARKS
LAFAYETTE      FAIR      27  18  69 CALM      30.25R
6HR MIN TEMP:  27; 6HR MAX TEMP:  35;

KOKOMO*        FAIR      27  18  69 SE6       30.25R WCI  20
6HR MIN TEMP:  27; 6HR MAX TEMP:  34;

MUNCIE*        FAIR      27  15  61 SE3       30.26R
6HR MIN TEMP:  25; 6HR MAX TEMP:  33;

INDIANAPOLIS   FAIR      28  19  69 SE7       30.25R WCI  21
6HR MIN TEMP:  28; 6HR MAX TEMP:  34;


$$
MIZ043>046-050>051-056>058-064>065-071>073-077>080-160700-
SOUTHWEST LOWER MICHIGAN

CITY           SKY/WX    TMP DP  RH WIND       PRES   REMARKS
BATTLE CREEK   FAIR      24  14  65 CALM      30.24S
6HR MIN TEMP:  22; 6HR MAX TEMP:  30;

BENTON HARBOR  FAIR      24  15  68 E5        30.25R WCI  18
6HR MIN TEMP:  23; 6HR MAX TEMP:  29;

HILLSDALE*     FAIR      21  15  76 CALM      30.23S
6HR MIN TEMP:  21; 6HR MAX TEMP:  30;

HOLLAND        FAIR      25  16  68 SE5       30.25R WCI  19
6HR MIN TEMP:  25; 6HR MAX TEMP:  31;

GRAND RAPIDS   FAIR      25  16  68 CALM      30.25R
6HR MIN TEMP:  25; 6HR MAX TEMP:  32;

KALAMAZOO      FAIR      25  15  66 CALM      30.24S
6HR MIN TEMP:  23; 6HR MAX TEMP:  30;

STURGIS*       FAIR      23  16  74 CALM      30.24R
THREE RIVERS*  FAIR      25  16  68 CALM      30.25S

$$
OHZ001>008-015>018-024>025-160700-
NORTHWEST OHIO

CITY           SKY/WX    TMP DP  RH WIND       PRES   REMARKS
DEFIANCE       FAIR      23  15  71 CALM      30.27R
6HR MIN TEMP:  23; 6HR MAX TEMP:  32;

FINDLAY        FAIR      27  14  58 CALM      30.25S
6HR MIN TEMP:  27; 6HR MAX TEMP:  32;

TOLEDO EXPRESS FAIR      23  13  65 CALM      30.26S
6HR MIN TEMP:  23; 6HR MAX TEMP:  32;

TOLEDO METCALF FAIR      25  15  66 W6        30.27S WCI  18
6HR MIN TEMP:  24; 6HR MAX TEMP:  33;

LIMA           FAIR      28  13  53 CALM      30.25R
6HR MIN TEMP:  28; 6HR MAX TEMP:  33;


$$
&&



USA.gov is the U.S. government's official web portal to all federal, state and local government web resources and services.